User: anonymous
Location: Mauna Kea VIS
(19.7591°N, 155.4561°W)
Time: 17:49:53
(UTC-10:00)
Language:

Cosmos 1624 Rocket - Orbit

View from above orbital plane
View from above orbital plane
View from above satellite
View from above satellite

Ground track
Ground track

The orbit data is extracted from the following two-line orbital elements,

1 15483U 85006B   14106.16733521  .00000202  00000-0  78636-4 0  1945
2 15483 074.0455 320.0255 0019479 228.2148 270.7082 14.35793375530328
Epoch (UTC): 16 April 2014 04:00:57
Eccentricity: 0.0019479
inclination: 74.0455°
perigee height: 758 km
apogee height: 786 km
right ascension of ascending node: 320.0255°
argument of perigee: 228.2148°
revolutions per day: 14.35793375
mean anomaly at epoch: 270.7082°
orbit number at epoch: 53032

The dashed part of the orbit path shows where the satellite is in the earth's shadow,  

DLR